Home   Weather   Friedrichshafen   Past weeks

Flag for Germany Past Weather in Friedrichshafen, Baden-Württemberg, Germany — Yesterday and Last 2 Weeks

Now
66 °F

Sunny.


Feels Like: 66 °F
Forecast: 50 / 58 °F
Wind: 8 mph from West

Location: Friedrichshafen Airport

Current Time: Oct 1, 2016 at 5:43:47 PM

Latest Report: Oct 1, 2016 at 4:50 PM


Visibility: 10 mi

Pressure: 29.92 "Hg

Humidity: 64%

Dew Point: 54 °F

Location of FriedrichshafenLocation

Past Weather in Friedrichshafen — Graph

°F

Friedrichshafen Temperature Yesterday

Maximum temperature yesterday: 73 °F (at 2:50 PM)
Minimum temperature yesterday: 45 °F (at 7:20 AM)
Average temperature yesterday: 59 °F

High & Low Weather Summary for the Past Weeks

 TemperatureHumidityPressure
High73 °F (Sep 30, 2:50 PM)100% (Sep 17, 3:50 AM)30.48 "Hg (Sep 17, 3:50 AM)
Low45 °F (Sep 22, 2:20 AM)41% (Sep 30, 4:50 PM)29.89 "Hg (Oct 1, 2:20 PM)
Average57 °F85%30.14 "Hg
* Reported Sep 16 4:20 PM — Oct 1 4:20 PM, Friedrichshafen, Weather by CustomWeather, © 2016

Note: Actual official high and low records may vary slightly from our data, if they occured in-between our weather recording intervals... More about our weather records

Advertising

Friedrichshafen Weather History for the Previous 24 Hours

Scroll right to see more
 ConditionsComfort  
Time TempWeatherWind HumidityBarometerVisibility
4:20 PM
Sat, Oct 1
66 °FSunny.6 mph68%29.89 "Hg10 mi
3:50 PM68 °FSunny.1 mph64%29.89 "Hg10 mi
3:20 PM68 °FSunny.2 mph60%29.89 "Hg10 mi
2:50 PM68 °FSunny.1 mph60%29.89 "Hg10 mi
2:20 PM68 °FSunny.3 mph64%29.89 "Hg10 mi
1:50 PM68 °FSunny.6 mph60%29.92 "Hg10 mi
1:20 PM68 °FSunny.3 mph60%29.92 "Hg10 mi
12:50 PM68 °FSunny.2 mph64%29.92 "Hg10 mi
12:20 PM66 °FSunny.1 mph64%29.92 "Hg10 mi
11:50 AM64 °FSunny.1 mph68%29.92 "Hg10 mi
11:20 AM63 °FSunny.No wind73%29.92 "Hg10 mi
10:50 AM61 °FSunny.2 mph72%29.95 "Hg10 mi
10:20 AM59 °FSunny.2 mph77%29.92 "Hg10 mi
9:50 AM55 °FSunny.3 mph88%29.92 "Hg10 mi
9:20 AM54 °FSunny.3 mph94%29.92 "Hg10 mi
8:50 AM52 °FSunny.1 mph94%29.92 "Hg10 mi
8:20 AM48 °FSunny.1 mph100%29.92 "Hg10 mi
7:50 AM46 °FSunny.3 mph100%29.92 "Hg10 mi
7:20 AM46 °FCool.2 mph100%29.92 "HgN/A
6:50 AM46 °FClear.3 mph100%29.92 "Hg10 mi
6:20 AM48 °FClear.No wind100%29.92 "Hg10 mi
5:50 AM48 °FClear.3 mph94%29.92 "Hg10 mi
5:20 AM48 °FClear.2 mph100%29.92 "Hg10 mi
4:50 AM48 °FClear.2 mph94%29.92 "Hg10 mi
4:20 AM48 °FClear.2 mph94%29.95 "Hg10 mi
3:50 AM50 °FClear.3 mph94%29.95 "Hg10 mi
3:20 AM50 °FCool.1 mph94%29.95 "HgN/A
2:50 AM52 °FClear.2 mph88%29.95 "Hg10 mi
2:20 AM54 °FCool.3 mph82%29.95 "HgN/A
1:50 AM50 °FCool.5 mph94%29.95 "HgN/A
1:20 AM50 °FCool.2 mph94%29.98 "HgN/A
12:50 AM52 °FCool.2 mph94%29.98 "HgN/A
12:20 AM52 °FCool.No wind94%29.98 "HgN/A
11:50 PM
Fri, Sep 30
50 °FCool.2 mph94%29.98 "HgN/A
11:20 PM52 °FCool.3 mph88%30.01 "HgN/A
10:50 PM54 °FClear.1 mph88%30.01 "Hg10 mi
10:20 PM54 °FClear.1 mph94%30.01 "Hg10 mi
9:50 PM55 °FClear.No wind88%30.01 "Hg10 mi
9:20 PM55 °FClear.No wind88%30.01 "Hg10 mi
8:50 PM57 °FClear.No wind88%30.01 "Hg10 mi
8:20 PM59 °FClear.2 mph82%30.01 "Hg10 mi
7:50 PM63 °FClear.3 mph68%30.01 "Hg10 mi
7:20 PM61 °FClear.2 mph72%30.01 "Hg10 mi
6:50 PM64 °FSunny.1 mph64%30.01 "Hg10 mi
6:20 PM68 °FSunny.3 mph56%30.01 "Hg10 mi
5:50 PM72 °FSunny.5 mph44%30.01 "Hg10 mi
5:20 PM72 °FSunny.7 mph47%30.01 "Hg10 mi
Weather by CustomWeather, © 2016

See weather overviewHow to use our weather pages